Temperature
15 15 15 15 15 15 15 15 15 15 15 15 15 15 15 15 16 16 16 16 16 16 16 16 16 16 16 16 16 16 16 16 16 16 16 16 16 17 17 17 17 17 17
15 15 15 15 15 15 15 15 15 15 15 15 15 15 15 15 15 15 15 16 16 16 16 16 16 16 16 16 16 16 16 16 16 16 16 16 16 16 16 16 17 17 17
15 15 15 15 15 15 15 15 15 15 15 15 15 15 15 15 15 15 15 15 15 15 16 16 16 16 16 16 16 16 16 16 16 16 16 16 16 16 16 16 16 16 16
15 15 15 15 15 15 15 15 15 15 15 15 15 15 15 15 15 15 15 15 15 15 15 15 15 16 16 16 16 16 16 16 16 16 16 16 16 16 16 16 16 16 16
15 15 15 15 15 15 15 15 15 15 15 15 15 15 14 14 15 15 15 15 15 15 15 15 15 15 15 16 16 16 16 16 16 16 16 16 16 16 16 16 16 16 16
15 15 15 15 15 15 15 15 15 15 15 15 14 14 14 14 14 14 14 14 15 15 15 15 15 15 15 15 15 16 16 15 15 15 15 15 16 16 16 16 16 16 16
15 15 15 15 15 15 15 15 15 15 15 14 14 14 14 14 14 14 14 14 14 14 14 14 15 15 15 15 15 15 15 15 15 15 15 15 15 15 15 15 15 15 15
15 15 15 15 15 15 15 15 15 15 14 14 14 14 14 14 14 14 14 14 14 14 14 14 14 15 15 15 15 15 15 15 15 15 15 15 15 15 15 15 15 15 15
15 15 15 15 15 15 15 15 14 15 14 14 14 14 14 14 13 13 13 13 14 14 14 14 14 14 14 14 14 15 15 15 15 15 15 15 15 15 15 15 15 15 15
15 15 15 15 15 15 15 15 14 14 14 14 14 14 14 14 14 13 13 13 13 14 14 14 14 14 14 14 14 14 14 14 15 15 15 15 15 15 15 15 15 15 15
15 15 15 15 15 15 15 14 14 14 14 14 14 14 14 14 14 14 13 13 13 13 13 13 14 14 14 14 14 14 14 14 14 14 14 14 14 14 14 14 14 14 14
15 15 15 15 15 15 15 15 14 14 14 14 14 14 14 14 14 14 14 14 13 13 13 13 13 13 14 14 14 14 14 14 14 14 14 14 14 14 14 14 14 14 14
15 15 15 15 15 15 15 15 15 15 14 15 14 14 14 14 14 14 14 14 13 13 13 13 13 13 13 13 14 14 14 14 14 14 14 14 14 14 14 14 14 14 14
15 15 15 15 15 15 15 15 15 15 15 15 14 14 14 14 14 14 14 14 14 13 13 13 13 13 13 13 13 13 13 13 13 13 13 13 13 13 13 13 13 13 13
15 15 15 15 15 15 15 15 15 14 14 14 14 14 14 14 14 14 14 14 14 13 13 13 13 13 13 13 13 13 13 13 13 13 13 13 13 13 13 13 13 13 13
15 15 15 15 15 15 15 15 15 14 14 14 14 14 14 14 14 14 14 14 14 13 13 13 13 13 13 13 13 13 13 13 13 13 13 13 13 13 13 13 13 13 13
15 15 15 15 15 15 15 15 15 15 14 14 14 14 14 14 14 14 14 13 13 13 13 13 13 13 13 13 12 12 12 12 12 12 12 12 12 12 12 12 12 12 12
15 15 15 15 15 15 15 15 15 15 15 14 14 14 14 14 14 14 14 14 13 13 13 13 13 12 12 12 12 12 12 12 12 12 12 12 12 12 12 12 12 12 12
15 15 15 15 15 15 15 15 15 15 15 14 14 14 14 14 14 14 14 13 13 13 13 13 13 12 12 12 12 12 12 12 12 12 12 12 12 12 12 12 12 12 12
16 15 15 15 15 15 15 15 15 15 14 14 14 14 14 14 14 14 13 13 13 13 13 13 12 12 12 12 12 12 12 12 12 12 12 12 12 11 11 11 11 11 11
16 15 15 15 15 15 15 15 15 14 14 14 14 14 14 14 14 13 13 13 13 13 13 12 12 12 12 12 12 12 12 12 11 11 12 11 11 11 11 11 11 11 11
16 15 15 15 15 15 15 15 15 14 14 14 14 14 13 13 13 13 13 13 13 12 12 12 12 12 12 12 12 11 11 11 11 11 11 11 11 11 11 11 11 11 10
16 15 15 15 15 15 15 15 14 14 14 14 14 14 13 13 13 13 13 13 13 12 12 12 12 12 12 11 11 11 11 11 11 11 11 11 11 11 11 10 10 10 10
15 15 15 15 15 15 15 15 14 14 14 14 14 14 13 13 13 13 13 13 12 12 12 12 11 11 11 11 11 11 11 10 10 10 10 10 10 10 10 10 10 10 10
15 15 15 15 15 15 15 14 14 14 14 14 13 13 13 13 13 13 12 12 12 12 12 12 11 11 11 11 11 10 10 10 10 10 10 10 10 10 10 10 10 10 9
15 15 15 15 15 15 14 14 14 14 14 14 13 13 13 13 12 12 12 12 12 12 12 11 11 11 11 10 10 10 10 9 9 9 9 9 9 8 9 9 9 9 9
Wind_Speed
3 4 5 6 7 7 7 7 7 7 7 8 8 8 8 9 9 9 8 10 10 10 10 10 10 10 10 11 11 10 10 9 9 8 8 8 8 7 7 6 6 6 6
4 4 4 5 6 7 7 8 7 6 6 7 7 9 9 9 10 10 10 11 12 12 12 13 13 13 12 12 12 11 11 10 9 9 9 9 8 8 8 8 7 7 7
5 5 4 4 5 7 8 8 8 7 6 6 7 8 9 10 10 11 12 12 12 14 15 14 14 14 14 13 13 13 12 11 11 10 10 9 9 8 8 8 8 8 8
6 6 4 3 5 7 7 5 5 5 6 6 6 6 7 8 10 11 12 12 12 12 13 15 15 15 15 14 13 13 12 11 11 10 10 10 9 9 9 9 9 9 9
7 7 5 4 6 6 5 5 4 4 5 6 6 6 6 6 7 10 10 12 13 13 13 13 15 16 15 15 14 13 12 12 11 11 11 11 10 10 9 9 8 9 9
7 8 6 6 6 5 4 5 5 5 4 5 7 7 6 6 7 8 8 10 12 13 14 13 13 13 15 15 15 14 13 12 11 11 11 11 11 11 10 10 9 9 9
7 7 5 5 5 4 4 5 5 6 4 3 4 5 5 6 7 6 7 7 10 12 13 13 13 12 12 14 14 14 13 12 11 11 10 10 11 11 11 10 10 9 9
6 6 5 4 4 4 5 4 4 3 2 3 3 3 3 4 5 6 5 6 7 9 10 12 12 12 12 11 13 14 14 13 12 11 11 11 11 11 11 11 11 10 10
6 6 6 5 4 4 4 3 3 4 2 2 3 3 3 1 1 4 5 5 5 5 7 9 11 11 11 11 11 13 14 14 13 12 11 11 11 12 12 12 11 11 11
5 6 6 5 4 3 3 2 2 2 3 2 2 3 2 3 3 1 3 3 5 5 6 7 8 10 11 11 11 13 14 14 14 12 12 11 11 11 11 11 11 12 12
5 5 5 5 4 3 2 2 2 2 2 2 2 2 3 3 2 3 0 2 3 4 4 5 7 8 10 10 10 12 13 13 13 13 12 11 11 11 11 12 12 12 12
3 5 5 4 4 3 2 2 2 2 2 2 2 2 2 2 2 2 2 0 1 3 3 4 5 7 9 10 10 12 13 13 13 13 12 12 12 11 11 12 12 12 12
1 2 3 3 3 3 3 3 2 2 2 2 2 1 2 2 2 3 3 2 1 2 3 3 4 6 7 9 9 11 12 12 13 12 11 11 11 11 11 11 11 11 11
1 1 2 3 3 4 4 4 3 2 2 2 2 2 2 1 2 3 3 3 2 2 3 3 3 5 6 7 8 9 9 11 11 11 11 11 11 11 10 10 10 10 10
1 2 3 3 3 4 4 4 4 3 3 3 2 2 2 2 2 2 2 3 4 1 2 3 3 4 6 6 7 7 8 9 10 10 10 10 10 10 9 9 9 9 9
2 3 3 3 3 4 4 4 3 3 4 3 2 3 3 2 2 2 2 2 2 3 1 2 2 3 4 5 6 7 7 7 8 8 8 8 8 8 8 8 7 8 8
3 3 3 3 3 3 3 3 3 3 3 3 3 3 3 2 2 2 2 2 2 2 2 1 2 2 3 3 5 6 7 6 7 7 7 7 7 7 6 6 6 6 6
3 3 3 3 3 3 3 3 3 3 3 2 2 2 2 2 3 2 2 2 2 2 2 1 1 2 2 3 3 4 5 5 6 7 6 6 5 6 6 6 6 5 5
3 3 3 3 3 3 2 2 2 2 2 2 2 2 1 2 2 1 2 2 2 2 2 2 0 1 1 2 2 3 4 4 5 5 6 5 4 5 5 5 5 4 4
4 4 3 3 3 3 3 2 3 2 2 1 1 1 1 2 2 2 2 2 2 3 2 2 1 1 1 2 1 2 3 3 3 5 5 4 5 6 6 5 5 4 4
4 4 3 3 2 3 3 3 3 3 2 1 0 0 0 1 2 3 2 3 3 2 2 1 1 1 1 1 1 1 1 3 3 2 3 3 4 5 6 6 5 5 5
4 4 3 3 3 2 4 6 5 3 3 2 1 1 1 0 1 1 2 4 5 4 3 2 1 1 2 2 1 1 1 1 3 2 1 3 2 3 6 7 7 7 7
4 4 3 3 3 3 4 6 6 5 3 3 2 1 1 0 1 1 1 1 1 3 4 4 3 3 3 3 2 1 2 2 3 2 1 3 2 3 7 8 9 9 8
4 4 4 4 3 3 4 5 6 4 3 2 3 3 2 2 1 2 1 0 1 1 2 2 3 4 3 2 3 2 3 2 3 2 1 3 3 3 5 9 10 10 9
4 3 3 4 3 3 3 5 5 3 2 2 2 2 3 3 2 3 2 1 2 3 3 3 4 4 4 3 3 2 1 0 3 3 2 2 3 3 4 4 8 9 9
4 4 2 2 3 3 3 5 6 3 2 2 1 1 3 3 3 3 3 3 3 4 2 2 2 3 3 3 4 4 3 2 2 3 2 2 2 2 4 3 4 7 8
Wind_Direction
63 58 57 59 62 68 71 69 67 65 60 56 56 58 55 52 48 43 43 50 50 51 51 52 53 53 52 53 53 55 56 55 53 51 48 46 47 51 52 53 54 51 48
89 78 69 64 66 72 77 77 74 71 62 61 55 55 57 54 50 47 46 46 48 50 50 51 52 54 54 54 53 53 54 54 52 50 49 49 49 51 55 53 53 53 50
97 92 80 69 70 81 84 79 73 70 66 62 54 50 53 51 51 48 47 46 46 49 51 52 51 51 51 51 51 49 50 50 50 51 50 50 52 55 58 57 54 55 55
101 97 88 77 83 84 83 80 71 71 64 62 57 47 47 49 48 50 49 46 45 44 45 49 50 48 47 47 48 47 48 49 51 53 54 54 54 58 60 62 61 60 57
97 101 95 90 93 86 77 86 71 79 81 75 69 54 45 42 42 48 46 44 44 43 42 42 45 45 43 43 43 44 45 47 51 55 56 55 56 58 60 63 64 62 60
94 100 96 91 95 87 76 81 84 73 80 84 79 63 48 42 43 40 39 42 44 45 44 42 39 37 39 39 39 40 41 44 49 55 57 55 55 59 61 65 64 63 61
93 97 97 90 90 93 97 98 96 84 72 74 81 60 40 41 45 36 34 39 40 42 44 42 39 36 32 31 33 37 37 40 46 54 58 58 57 57 60 64 63 62 61
87 98 100 98 96 98 94 92 98 100 69 46 90 87 44 17 23 29 29 37 34 37 39 38 37 35 32 29 27 32 34 39 45 53 58 61 61 59 59 60 59 57 56
77 91 100 104 103 109 119 112 109 112 111 47 61 117 120 150 1 3 20 30 28 32 30 32 32 30 29 27 25 30 35 39 45 52 57 61 63 63 61 60 58 55 54
68 86 97 102 104 105 119 128 115 111 121 109 60 58 96 140 134 47 355 10 24 31 23 26 23 25 27 26 26 31 37 39 46 51 55 58 61 62 62 60 58 56 53
52 75 93 99 100 104 120 118 109 107 117 135 133 111 84 69 87 128 143 338 3 8 12 14 17 20 22 24 27 32 37 41 45 48 50 53 57 60 61 60 58 56 53
36 54 79 89 98 101 112 119 116 114 109 114 120 128 138 138 148 131 143 153 335 329 348 3 11 10 16 21 27 32 37 40 44 47 49 52 52 55 57 58 56 54 52
43 35 65 80 85 95 104 106 101 102 113 117 132 135 133 142 143 137 131 135 26 327 337 347 357 5 13 18 23 29 36 40 43 46 49 52 52 52 53 53 52 51 49
151 78 88 90 88 95 98 93 86 88 91 98 101 110 107 115 127 138 144 139 93 356 351 327 330 356 6 16 21 28 32 37 41 43 47 51 51 50 49 49 49 48 48
137 104 97 88 83 88 91 91 85 79 88 83 82 91 93 86 100 110 125 138 140 137 306 305 319 330 355 12 19 27 30 34 37 40 44 47 48 49 49 49 48 48 46
119 118 110 99 91 87 87 87 86 80 85 72 80 85 77 72 83 90 110 104 116 146 203 291 289 310 342 4 14 24 25 32 33 35 38 40 41 43 43 44 44 44 42
147 143 134 120 111 101 94 97 96 98 93 73 67 86 77 81 85 77 84 88 85 107 135 305 322 339 357 3 7 16 16 19 16 22 29 31 32 34 33 34 33 32 31
159 154 138 132 126 116 110 119 119 114 116 109 92 89 74 85 80 75 86 90 95 97 127 152 332 349 352 2 4 4 3 5 3 7 11 15 22 22 19 18 19 18 19
158 149 145 153 154 144 138 141 139 133 133 141 138 130 127 111 98 91 98 101 99 91 89 125 152 337 337 0 8 2 4 356 352 353 355 356 360 358 357 358 358 1 3
165 168 168 172 168 155 155 155 146 141 137 133 136 152 161 164 176 152 130 134 120 104 91 97 104 342 323 335 11 353 343 340 330 345 344 336 335 336 331 327 327 329 326
172 167 160 165 158 161 175 169 165 159 155 146 122 43 208 182 187 170 157 162 141 124 113 112 116 353 315 317 296 287 293 317 303 323 333 321 322 322 315 310 309 310 309
158 153 169 172 177 194 184 175 162 164 168 169 191 270 305 307 220 190 175 161 156 155 165 158 188 228 260 244 234 228 234 340 308 315 329 305 316 297 293 289 292 295 298
164 162 178 176 197 219 196 182 173 158 169 184 198 219 256 276 101 95 80 102 171 184 175 169 191 224 235 227 189 215 223 228 252 279 335 287 292 290 289 287 289 286 288
167 176 186 191 203 225 198 184 175 155 168 195 206 207 211 238 185 156 141 70 302 288 238 196 212 231 233 209 183 202 218 251 279 278 193 267 287 285 297 289 288 287 282
173 179 182 184 194 233 202 180 160 155 179 218 220 192 189 215 226 164 151 205 295 301 286 251 248 260 271 253 186 122 104 329 299 285 207 239 282 298 292 284 290 291 283
177 170 172 182 194 222 202 182 164 159 183 222 246 237 217 216 225 184 178 193 248 271 284 323 312 306 298 275 224 200 196 210 260 282 244 223 270 306 306 290 298 295 288
Height
1555 1554 1554 1554 1554 1554 1554 1554 1554 1554 1554 1554 1554 1555 1555 1555 1555 1555 1554 1554 1554 1553 1553 1552 1551 1550 1549 1548 1547 1547 1547 1547 1547 1547 1547 1547 1546 1546 1546 1546 1546 1546 1545
1556 1556 1556 1556 1556 1556 1556 1556 1556 1556 1556 1556 1556 1556 1556 1556 1556 1556 1556 1556 1555 1555 1554 1553 1552 1551 1550 1549 1549 1548 1548 1548 1548 1547 1547 1546 1546 1546 1546 1546 1546 1546 1546
1558 1558 1557 1557 1557 1558 1558 1558 1558 1557 1557 1558 1558 1558 1558 1558 1557 1557 1557 1557 1557 1556 1556 1555 1554 1553 1552 1551 1550 1550 1549 1549 1548 1547 1547 1547 1546 1546 1546 1546 1546 1546 1546
1559 1559 1559 1559 1559 1560 1560 1560 1559 1559 1559 1559 1559 1559 1559 1559 1559 1559 1559 1558 1558 1558 1557 1556 1555 1555 1554 1553 1552 1551 1550 1549 1549 1548 1547 1547 1546 1546 1546 1546 1546 1546 1546
1561 1561 1561 1561 1561 1561 1561 1561 1561 1561 1561 1561 1561 1561 1561 1561 1561 1561 1560 1560 1560 1559 1559 1558 1557 1556 1555 1554 1553 1552 1551 1550 1549 1548 1548 1547 1547 1546 1546 1546 1547 1546 1546
1562 1562 1562 1562 1562 1563 1563 1563 1563 1563 1563 1563 1563 1563 1563 1563 1563 1563 1562 1562 1562 1561 1560 1559 1559 1558 1557 1556 1555 1553 1552 1551 1550 1549 1549 1548 1548 1547 1547 1547 1547 1546 1546
1563 1563 1563 1563 1564 1564 1564 1564 1565 1565 1565 1565 1565 1565 1565 1566 1565 1565 1564 1564 1563 1563 1562 1561 1560 1559 1558 1557 1556 1555 1553 1551 1550 1550 1549 1549 1548 1548 1548 1547 1547 1547 1546
1564 1564 1564 1565 1565 1565 1565 1566 1566 1566 1566 1566 1567 1566 1567 1569 1567 1567 1566 1566 1565 1565 1564 1563 1562 1561 1560 1558 1557 1556 1554 1552 1551 1550 1550 1550 1549 1549 1549 1548 1548 1547 1547
1565 1565 1566 1566 1566 1566 1567 1567 1567 1567 1567 1568 1568 1569 1568 1568 1569 1569 1568 1568 1567 1566 1565 1564 1563 1562 1561 1560 1558 1557 1555 1553 1552 1552 1551 1551 1551 1550 1550 1549 1549 1548 1547
1566 1567 1567 1567 1567 1567 1568 1568 1568 1569 1569 1569 1569 1569 1570 1569 1569 1570 1570 1569 1568 1568 1567 1566 1565 1563 1562 1561 1559 1558 1557 1555 1554 1553 1553 1552 1552 1551 1551 1550 1550 1549 1548
1568 1568 1568 1568 1568 1569 1569 1569 1569 1569 1569 1569 1570 1570 1570 1570 1570 1570 1569 1569 1569 1569 1568 1567 1566 1564 1563 1562 1561 1559 1558 1557 1556 1555 1554 1554 1553 1553 1552 1551 1551 1550 1549
1569 1569 1569 1569 1570 1570 1570 1570 1570 1570 1570 1570 1570 1570 1570 1570 1570 1570 1569 1569 1569 1569 1568 1567 1566 1565 1564 1563 1562 1561 1559 1558 1557 1556 1555 1555 1554 1554 1553 1552 1552 1551 1550
1569 1570 1570 1570 1570 1571 1571 1571 1570 1570 1570 1570 1571 1571 1571 1570 1570 1570 1570 1569 1569 1569 1568 1568 1567 1566 1565 1564 1562 1561 1560 1559 1558 1557 1557 1556 1555 1555 1554 1553 1552 1551 1550
1570 1570 1571 1571 1571 1571 1571 1571 1571 1571 1571 1571 1571 1571 1571 1570 1570 1570 1570 1570 1569 1569 1569 1568 1567 1566 1565 1564 1563 1562 1561 1560 1559 1558 1557 1557 1556 1555 1555 1554 1553 1552 1551
1571 1571 1571 1571 1571 1571 1572 1572 1571 1571 1571 1571 1571 1571 1571 1571 1571 1571 1570 1570 1570 1569 1568 1568 1567 1566 1565 1564 1563 1562 1561 1561 1560 1559 1558 1557 1557 1556 1555 1554 1553 1552 1551
1571 1571 1572 1572 1572 1572 1572 1572 1572 1571 1571 1571 1571 1571 1571 1571 1571 1571 1570 1570 1570 1569 1568 1568 1567 1566 1564 1563 1563 1562 1561 1561 1560 1559 1558 1558 1557 1556 1555 1554 1553 1552 1551
1571 1571 1572 1572 1572 1572 1572 1572 1572 1572 1571 1571 1571 1571 1571 1571 1571 1570 1570 1570 1569 1569 1568 1567 1567 1565 1564 1563 1562 1562 1561 1561 1560 1559 1558 1557 1556 1555 1554 1553 1552 1551 1550
1571 1571 1572 1572 1572 1572 1572 1572 1572 1572 1571 1571 1571 1571 1571 1571 1570 1570 1570 1569 1569 1568 1568 1567 1566 1565 1564 1563 1562 1562 1561 1560 1560 1559 1558 1557 1556 1555 1554 1552 1551 1550 1549
1570 1571 1571 1572 1572 1572 1572 1572 1572 1572 1571 1571 1571 1571 1571 1570 1570 1570 1569 1569 1568 1568 1567 1567 1566 1565 1564 1563 1562 1561 1561 1560 1559 1558 1557 1556 1555 1553 1552 1551 1550 1548 1547
1570 1570 1571 1571 1571 1572 1572 1572 1572 1571 1571 1571 1571 1571 1570 1570 1570 1569 1569 1569 1568 1568 1567 1566 1565 1564 1563 1562 1562 1560 1559 1559 1558 1557 1555 1554 1553 1552 1551 1549 1548 1547 1545
1568 1569 1570 1570 1570 1571 1571 1571 1571 1571 1571 1571 1571 1570 1570 1570 1569 1569 1569 1568 1568 1567 1566 1565 1564 1563 1562 1561 1560 1559 1558 1557 1556 1555 1554 1552 1551 1550 1549 1547 1546 1544 1543
1567 1568 1568 1569 1569 1570 1570 1570 1570 1570 1570 1570 1570 1570 1570 1569 1569 1568 1568 1567 1567 1566 1565 1564 1563 1562 1561 1560 1559 1558 1557 1555 1554 1553 1551 1550 1549 1547 1546 1544 1543 1541 1540
1565 1566 1567 1567 1568 1568 1569 1569 1569 1569 1569 1569 1569 1569 1569 1568 1568 1567 1567 1566 1566 1565 1564 1564 1562 1561 1560 1559 1558 1556 1555 1553 1552 1551 1549 1547 1546 1544 1543 1541 1540 1538 1536
1563 1564 1565 1566 1566 1567 1567 1568 1568 1568 1568 1568 1568 1568 1567 1567 1567 1566 1566 1565 1564 1563 1563 1561 1561 1560 1559 1557 1556 1555 1553 1551 1550 1548 1546 1543 1542 1540 1539 1538 1536 1534 1532
1560 1561 1562 1563 1564 1565 1565 1566 1566 1566 1566 1566 1566 1566 1566 1565 1565 1565 1564 1563 1562 1562 1561 1560 1559 1557 1556 1555 1554 1552 1550 1548 1545 1544 1543 1541 1538 1536 1534 1533 1532 1530 1528
1558 1559 1560 1561 1562 1562 1563 1563 1564 1563 1563 1563 1563 1563 1563 1563 1563 1562 1561 1560 1559 1559 1558 1557 1556 1555 1553 1552 1550 1549 1547 1545 1543 1541 1539 1537 1535 1533 1529 1528 1527 1526 1524